When you browse on this site, cookies collect data to enhance your experience and personalize the content and advertising you see.
Visit our Privacy Policy to learn more. By continuing to use the site, you agree to this use of cookies and data.
  • In Schweiz
  • Länderverzeichnis
  • Für 7 Tage
  • Wassertemperatur
  • Wetterkarte
  • Widgets
  • user-avatar
    Anmelden

    Stündliche Wetter Dakka

    Heute, 23 September, Montag

    Zeit Temperatur Niederschläge Wind Luftdruck Luftfeuchtigkeit
    00:00 +29°C° 0 mm 1 m/S 757 mmHg 74%
    01:00 +29°C° 0.3 mm 1 m/S 756 mmHg 75%
    02:00 +29°C° 0.3 mm 1 m/S 756 mmHg 76%
    03:00 +29°C° 0.3 mm 1 m/S 756 mmHg 76%
    04:00 +29°C° 0 mm 1 m/S 756 mmHg 77%
    05:00 +29°C° 0 mm 1 m/S 756 mmHg 78%
    06:00 +29°C° 0 mm 1 m/S 757 mmHg 80%
    07:00 +29°C° 0 mm 2 m/S 757 mmHg 79%
    08:00 +29°C° 0 mm 2 m/S 758 mmHg 79%
    09:00 +29°C° 0 mm 2 m/S 758 mmHg 78%
    10:00 +30°C° 0 mm 2 m/S 757 mmHg 74%
    11:00 +31°C° 0 mm 2 m/S 757 mmHg 70%
    12:00 +32°C° 0 mm 2 m/S 756 mmHg 66%
    13:00 +34°C° 0.1 mm 2 m/S 756 mmHg 62%
    14:00 +35°C° 0.1 mm 2 m/S 755 mmHg 58%
    15:00 +36°C° 0.1 mm 3 m/S 754 mmHg 55%
    16:00 +35°C° 0.9 mm 3 m/S 755 mmHg 61%
    17:00 +33°C° 0.9 mm 3 m/S 755 mmHg 66%
    18:00 +31°C° 0.9 mm 3 m/S 755 mmHg 72%
    19:00 +31°C° 0.1 mm 2 m/S 756 mmHg 73%
    20:00 +30°C° 0.1 mm 2 m/S 756 mmHg 73%
    21:00 +30°C° 0.1 mm 2 m/S 757 mmHg 74%
    22:00 +30°C° 0 mm 2 m/S 757 mmHg 76%
    23:00 +30°C° 0 mm 2 m/S 757 mmHg 77%

    Morgen, 24 September, Dienstag

    Zeit Temperatur Niederschläge Wind Luftdruck Luftfeuchtigkeit
    00:00 +29°C° 0 mm 2 m/S 757 mmHg 79%
    01:00 +29°C° 0 mm 1 m/S 757 mmHg 80%
    02:00 +29°C° 0 mm 1 m/S 756 mmHg 80%
    03:00 +29°C° 0 mm 1 m/S 756 mmHg 81%
    04:00 +29°C° 0 mm 1 m/S 756 mmHg 82%
    05:00 +29°C° 0 mm 2 m/S 757 mmHg 83%
    06:00 +28°C° 0 mm 2 m/S 757 mmHg 83%
    07:00 +30°C° 0.2 mm 2 m/S 757 mmHg 78%
    08:00 +31°C° 0.2 mm 2 m/S 758 mmHg 72%
    09:00 +32°C° 0.2 mm 2 m/S 758 mmHg 66%
    10:00 +34°C° 0.8 mm 3 m/S 758 mmHg 63%
    11:00 +35°C° 0.8 mm 4 m/S 758 mmHg 60%
    12:00 +36°C° 0.8 mm 4 m/S 757 mmHg 56%
    13:00 +35°C° 0.9 mm 4 m/S 757 mmHg 57%
    14:00 +35°C° 0.9 mm 5 m/S 756 mmHg 58%
    15:00 +35°C° 0.9 mm 5 m/S 756 mmHg 59%
    16:00 +34°C° 0.4 mm 4 m/S 756 mmHg 65%
    17:00 +32°C° 0.4 mm 4 m/S 756 mmHg 71%
    18:00 +30°C° 0.4 mm 3 m/S 756 mmHg 77%
    19:00 +30°C° 0.2 mm 3 m/S 757 mmHg 77%
    20:00 +29°C° 0.2 mm 3 m/S 758 mmHg 78%
    21:00 +29°C° 0.2 mm 2 m/S 759 mmHg 78%
    22:00 +28°C° 0 mm 3 m/S 758 mmHg 79%
    23:00 +28°C° 0 mm 3 m/S 758 mmHg 79%

    übermorgen, 25 September, Mittwoch

    Zeit Temperatur Niederschläge Wind Luftdruck Luftfeuchtigkeit
    00:00 +28°C° 0 mm 3 m/S 758 mmHg 80%
    01:00 +28°C° 0 mm 3 m/S 758 mmHg 81%
    02:00 +27°C° 0 mm 4 m/S 758 mmHg 82%
    03:00 +27°C° 0 mm 4 m/S 758 mmHg 83%
    04:00 +27°C° 0 mm 4 m/S 758 mmHg 83%
    05:00 +27°C° 0 mm 4 m/S 758 mmHg 84%
    06:00 +27°C° 0 mm 4 m/S 758 mmHg 84%
    07:00 +27°C° 0 mm 4 m/S 759 mmHg 82%
    08:00 +28°C° 0 mm 5 m/S 760 mmHg 80%
    09:00 +29°C° 0 mm 5 m/S 760 mmHg 78%
    10:00 +30°C° 0 mm 5 m/S 760 mmHg 75%
    11:00 +32°C° 0 mm 5 m/S 760 mmHg 72%
    12:00 +32°C° 0 mm 5 m/S 760 mmHg 69%
    13:00 +33°C° 0.6 mm 5 m/S 759 mmHg 69%
    14:00 +33°C° 0.6 mm 5 m/S 758 mmHg 69%
    15:00 +33°C° 0.6 mm 5 m/S 758 mmHg 69%
    16:00 +30°C° 2.7 mm 4 m/S 758 mmHg 75%
    17:00 +29°C° 2.7 mm 3 m/S 758 mmHg 81%
    18:00 +28°C° 2.7 mm 2 m/S 758 mmHg 86%
    19:00 +28°C° 2.8 mm 2 m/S 759 mmHg 88%
    20:00 +27°C° 2.8 mm 2 m/S 760 mmHg 90%
    21:00 +27°C° 2.8 mm 2 m/S 760 mmHg 92%
    22:00 +27°C° 0.5 mm 2 m/S 760 mmHg 91%
    23:00 +27°C° 0.5 mm 2 m/S 760 mmHg 90%

    26 September, Donnerstag

    Zeit Temperatur Niederschläge Wind Luftdruck Luftfeuchtigkeit
    00:00 +27°C° 0.5 mm 2 m/S 760 mmHg 90%
    01:00 +27°C° 0.2 mm 2 m/S 760 mmHg 89%
    02:00 +27°C° 0.2 mm 2 m/S 760 mmHg 89%
    03:00 +26°C° 0.2 mm 1 m/S 759 mmHg 89%
    04:00 +26°C° 0.2 mm 1 m/S 759 mmHg 89%
    05:00 +26°C° 0.2 mm 1 m/S 760 mmHg 89%
    06:00 +26°C° 0.2 mm 1 m/S 760 mmHg 89%
    07:00 +27°C° 0.1 mm 1 m/S 760 mmHg 86%
    08:00 +28°C° 0.1 mm 1 m/S 760 mmHg 82%
    09:00 +28°C° 0.1 mm 1 m/S 761 mmHg 79%
    10:00 +29°C° 0.1 mm 1 m/S 760 mmHg 77%
    11:00 +29°C° 0.1 mm 1 m/S 760 mmHg 75%
    12:00 +30°C° 0.1 mm 1 m/S 759 mmHg 73%
    13:00 +30°C° 0.1 mm 1 m/S 759 mmHg 71%
    14:00 +31°C° 0.1 mm 1 m/S 758 mmHg 70%
    15:00 +31°C° 0.1 mm 1 m/S 757 mmHg 69%
    16:00 +30°C° 0.4 mm 2 m/S 757 mmHg 74%
    17:00 +29°C° 0.4 mm 2 m/S 757 mmHg 78%
    18:00 +28°C° 0.4 mm 3 m/S 757 mmHg 83%
    19:00 +28°C° 0.1 mm 3 m/S 758 mmHg 85%
    20:00 +28°C° 0.1 mm 2 m/S 758 mmHg 86%
    21:00 +27°C° 0.1 mm 2 m/S 759 mmHg 88%
    22:00 +27°C° 0.5 mm 2 m/S 759 mmHg 88%
    23:00 +27°C° 0.5 mm 2 m/S 759 mmHg 89%

    27 September, Freitag

    Zeit Temperatur Niederschläge Wind Luftdruck Luftfeuchtigkeit
    00:00 +27°C° 0.5 mm 1 m/S 759 mmHg 89%
    01:00 +27°C° 0 mm 1 m/S 759 mmHg 88%
    02:00 +27°C° 0 mm 1 m/S 759 mmHg 88%
    03:00 +27°C° 0 mm 1 m/S 758 mmHg 88%
    04:00 +26°C° 0 mm 1 m/S 758 mmHg 88%
    05:00 +26°C° 0 mm 1 m/S 758 mmHg 88%
    06:00 +26°C° 0 mm 1 m/S 759 mmHg 88%
    07:00 +28°C° 0 mm 1 m/S 759 mmHg 83%
    08:00 +29°C° 0 mm 2 m/S 759 mmHg 78%
    09:00 +30°C° 0 mm 2 m/S 759 mmHg 72%
    10:00 +31°C° 0 mm 2 m/S 759 mmHg 67%
    11:00 +32°C° 0 mm 2 m/S 758 mmHg 62%
    12:00 +34°C° 0 mm 2 m/S 757 mmHg 58%
    13:00 +35°C° 0 mm 2 m/S 757 mmHg 57%
    14:00 +34°C° 0 mm 1 m/S 756 mmHg 57%
    15:00 +34°C° 0 mm 1 m/S 755 mmHg 57%
    16:00 +33°C° 0.3 mm 1 m/S 755 mmHg 62%
    17:00 +32°C° 0.3 mm 2 m/S 755 mmHg 67%
    18:00 +31°C° 0.3 mm 2 m/S 755 mmHg 72%
    19:00 +30°C° 0.8 mm 2 m/S 756 mmHg 75%
    20:00 +29°C° 0.8 mm 2 m/S 756 mmHg 79%
    21:00 +29°C° 0.8 mm 2 m/S 757 mmHg 82%
    22:00 +28°C° 0.4 mm 2 m/S 757 mmHg 83%
    23:00 +28°C° 0.4 mm 2 m/S 757 mmHg 83%

    28 September, Samstag

    Zeit Temperatur Niederschläge Wind Luftdruck Luftfeuchtigkeit
    00:00 +28°C° 0.4 mm 2 m/S 757 mmHg 84%
    01:00 +28°C° 0 mm 2 m/S 756 mmHg 84%
    02:00 +27°C° 0 mm 2 m/S 756 mmHg 85%
    03:00 +27°C° 0 mm 2 m/S 756 mmHg 85%
    04:00 +27°C° 0 mm 2 m/S 756 mmHg 86%
    05:00 +27°C° 0 mm 2 m/S 756 mmHg 87%
    06:00 +26°C° 0 mm 2 m/S 756 mmHg 88%
    07:00 +28°C° 0 mm 3 m/S 756 mmHg 81%
    08:00 +29°C° 0 mm 3 m/S 756 mmHg 75%
    09:00 +31°C° 0 mm 3 m/S 757 mmHg 68%
    10:00 +33°C° 0 mm 3 m/S 756 mmHg 64%
    11:00 +34°C° 0 mm 3 m/S 756 mmHg 60%
    12:00 +35°C° 0 mm 3 m/S 755 mmHg 56%
    13:00 +35°C° 0.4 mm 3 m/S 754 mmHg 57%
    14:00 +35°C° 0.4 mm 3 m/S 754 mmHg 59%
    15:00 +34°C° 0.4 mm 4 m/S 753 mmHg 60%
    16:00 +33°C° 0.9 mm 4 m/S 753 mmHg 65%
    17:00 +32°C° 0.9 mm 4 m/S 753 mmHg 71%
    18:00 +29°C° 0.9 mm 5 m/S 754 mmHg 76%
    19:00 +29°C° 0 mm 5 m/S 755 mmHg 78%
    20:00 +28°C° 0 mm 5 m/S 755 mmHg 79%
    21:00 +28°C° 0 mm 5 m/S 756 mmHg 81%
    22:00 +28°C° 0 mm 5 m/S 756 mmHg 82%
    23:00 +27°C° 0 mm 5 m/S 756 mmHg 83%
    Mehr zeigen